Ringgold, VA

1:22 AM EDT on September 26, 2016 (GMT -0400)
Danville Regional

Weather History for KDAN - March, 2013

Change the Weather History Date:

Sunday, March 31, 2013

  Actual Average Record
Temperature  
Mean Temperature 57 °F 54 °F  
Max Temperature 65 °F 64 °F 90 °F (1985)
Min Temperature 48 °F 43 °F 26 °F (1950)
Degree Days  
Heating Degree Days 8 12  
Month to date heating degree days 660 510  
Since 1 July heating degree days 3455 3511  
Cooling Degree Days 0 0  
Month to date cooling degree days 0 3  
Year to date cooling degree days 2 3  
Growing Degree Days 6 (Base 50)    
Moisture  
Dew Point 48 °F    
Average Humidity 76    
Maximum Humidity 93    
Minimum Humidity 59    
Precipitation  
Precipitation 0.30 in 0.15 in 0.87 in (1958)
Month to date precipitation 2.55 4.11  
Year to date precipitation 12.36 10.54  
Snow  
Snow 0.00 in - - ()
Month to date snowfall T  
Since 1 July snowfall 1.7  
Snow Depth 0.00 in    
Sea Level Pressure  
Sea Level Pressure 29.89 in    
Wind  
Wind Speed 6 mph (SW)    
Max Wind Speed 17 mph    
Max Gust Speed 23 mph    
Visibility 7 miles    
Events Rain    
T = Trace of Precipitation, MM = Missing Value Source: NWS Daily Summary

Daily Weather History Graph

Daily Weather History Graph

Search for Another Location

Airport or City:

Trip Planner

Search our weather history database for the weather conditions in past years. The results will help you decide how hot, cold, wet, or windy it might be!

Date:

Astronomy

Mar. 31, 2013 Rise Set
Actual Time 7:04 AM EDT 7:38 PM EDT
Civil Twilight 6:38 AM EDT 8:04 PM EDT
Nautical Twilight 6:07 AM EDT 8:35 PM EDT
Astronomical Twilight 5:36 AM EDT 9:06 PM EDT
Moon No Moon Rise 9:57 AM EDT (3/31)
Length of Visible Light 13h 26m
Length of Day
12h 34m
Waning Gibbous, 78% of the Moon is Illuminated
Mar 31
Waning Gibbous
Apr 3
Last Quarter
Apr 10
New
Apr 18
First Quarter
Apr 25
Full

Hourly Weather History & Observations

Time (EDT) Temp. Dew Point Humidity Pressure Visibility Wind Dir Wind Speed Gust Speed Precip Events Conditions
12:53 AM 48.9 °F 35.1 °F 59% 30.06 in 10.0 mi SSW 3.5 mph - N/A   Clear
1:53 AM 51.1 °F 37.9 °F 61% 30.03 in 10.0 mi South 3.5 mph - N/A   Clear
2:53 AM 52.0 °F 41.0 °F 66% 30.01 in 10.0 mi South 5.8 mph - N/A   Clear
3:53 AM 52.0 °F 42.1 °F 69% 29.99 in 10.0 mi Variable 3.5 mph - N/A   Partly Cloudy
4:53 AM 52.0 °F 43.0 °F 71% 29.96 in 10.0 mi Calm Calm - N/A   Mostly Cloudy
5:53 AM 50.0 °F 44.1 °F 80% 29.97 in 10.0 mi WSW 5.8 mph - 0.00 in Rain Light Rain
6:53 AM 48.9 °F 46.0 °F 90% 29.97 in 3.0 mi Calm Calm - N/A Rain Rain
7:53 AM 48.0 °F 46.0 °F 93% 29.93 in 2.5 mi Calm Calm - N/A Rain Light Rain
8:00 AM 48.2 °F 46.4 °F 93% 29.95 in 3.0 mi Calm Calm - 0.01 in Rain Light Rain
8:15 AM 48.2 °F 46.4 °F 93% 29.94 in 3.0 mi Calm Calm - 0.03 in Rain Light Rain
8:22 AM 48.2 °F 46.4 °F 93% 29.94 in 2.5 mi Calm Calm - 0.04 in Rain Light Rain
8:46 AM 48.2 °F 46.4 °F 93% 29.94 in 4.0 mi Calm Calm - 0.06 in   Overcast
8:53 AM 48.9 °F 46.0 °F 90% 29.93 in 3.0 mi Calm Calm - 0.07 in Rain Light Rain
9:32 AM 48.2 °F 46.4 °F 93% 29.92 in 1.8 mi Calm Calm - 0.04 in Rain Light Rain
9:50 AM 50.0 °F 46.4 °F 87% 29.92 in 2.5 mi Calm Calm - 0.06 in Rain Light Rain
9:53 AM 50.0 °F 46.9 °F 89% 29.90 in 3.0 mi Calm Calm - 0.06 in   Overcast
10:53 AM 51.1 °F 48.0 °F 89% 29.90 in 5.0 mi SW 4.6 mph - 0.06 in   Overcast
11:53 AM 53.1 °F 48.9 °F 86% 29.88 in 6.0 mi WSW 6.9 mph - 0.04 in   Overcast
12:07 PM 53.6 °F 50.0 °F 88% 29.89 in 6.0 mi SW 8.1 mph - 0.01 in   Overcast
12:53 PM 55.9 °F 51.1 °F 84% 29.85 in 8.0 mi SW 6.9 mph - 0.02 in   Overcast
1:13 PM 57.2 °F 51.8 °F 82% 29.86 in 8.0 mi West 6.9 mph - N/A   Overcast
1:53 PM 59.0 °F 52.0 °F 78% 29.83 in 10.0 mi West 6.9 mph - N/A   Overcast
2:30 PM 60.8 °F 51.8 °F 72% 29.83 in 10.0 mi WSW 11.5 mph - N/A   Overcast
2:53 PM 64.0 °F 53.1 °F 67% 29.80 in 10.0 mi WSW 13.8 mph - N/A   Mostly Cloudy
3:07 PM 62.6 °F 51.8 °F 68% 29.82 in 10.0 mi WSW 11.5 mph - N/A   Mostly Cloudy
3:53 PM 63.0 °F 52.0 °F 67% 29.81 in 10.0 mi West 9.2 mph - N/A   Overcast
4:53 PM 64.9 °F 52.0 °F 63% 29.80 in 10.0 mi West 11.5 mph - N/A   Mostly Cloudy
5:53 PM 64.0 °F 51.1 °F 63% 29.78 in 10.0 mi West 6.9 mph - N/A   Scattered Clouds
6:53 PM 62.1 °F 51.1 °F 67% 29.79 in 10.0 mi WSW 5.8 mph - N/A   Clear
7:53 PM 59.0 °F 51.1 °F 75% 29.78 in 10.0 mi SW 3.5 mph - N/A   Scattered Clouds
8:53 PM 60.1 °F 52.0 °F 75% 29.78 in 10.0 mi SSW 11.5 mph - N/A   Mostly Cloudy
9:53 PM 57.9 °F 52.0 °F 81% 29.81 in 10.0 mi WSW 8.1 mph - N/A   Overcast
10:53 PM 57.0 °F 53.1 °F 87% 29.81 in 10.0 mi SSW 8.1 mph - 0.00 in   Overcast
11:53 PM 57.0 °F 53.1 °F 87% 29.81 in 10.0 mi SW 6.9 mph - N/A   Overcast